Orbital Elements at Epoch 2459200.5 (2020-Dec-17.0) TDB
Reference: JPL 12 (heliocentric ecliptic J2000)
Element | Value | Uncertainty (1-sigma) | Units |
e | .04679234571069112 | 1.1468e-07 | |
a | 1.88668128186185 | 1.9171e-08 | au |
q | 1.79839903907508 | 2.2677e-07 | au |
i | 20.7860100723782 | 9.1913e-06 | deg |
node | 359.0077844775539 | 2.0353e-05 | deg |
peri | 150.2523354260994 | 9.2661e-05 | deg |
M | 61.37524448136814 | 0.00010022 | deg |
tp | 2459039.124733559350 (2020-Jul-08.62473356) | 0.00026189 | TDB |
period | 946.5558371220824 2.59 | 1.4427e-05 3.95e-08 | d yr |
n | .3803262162478946 | 5.7968e-09 | deg/d |
Q | 1.974963524648619 | 2.0068e-08 | au |
|
| | Orbit Determination Parameters
Additional Information
|